sat.trackr.live / text

‹ back to catalog

YAOGAN-30 03C

NORAD 43030 · 2017-075C

PAYLOAD ACTIVE UNKNOWN

§ Identity

Operator
Country
PRC
Launch date
2017-11-24
Launch site
XICLF
Launch vehicle
Mass (kg)
RCS (m²)

External: N2YO · Heavens-Above · Gunter

§ Orbital elements

Epoch: 2026-05-25T04:39:44.981568Z

Period
95.84 min
Inclination
34.9957°
Eccentricity
0.0002828
Mean motion
15.02528354 rev/d
Perigee alt
557.1 km
Apogee alt
561.1 km
Semi-major
6,937.2 km
B*
1.8758e-4
RAAN
50.3215°
Arg perigee
228.6989°
Mean anomaly
131.3475°
Rev number
46,396

§ Raw data

YAOGAN-30 03C1 43030U 17075C   26145.19427062  .00002515  00000+0  18758-3 0  99932 43030  34.9957  50.3215 0002828 228.6989 131.3475 15.02528354463966

JSON: /api/v1/satellites/43030 · /tle

For live sub-satellite position, see the globe view (requires WebGL).

§ Visibility from observer

Set your observer location to see the next 7 days of passes ≥ 10°. The values pass through the URL so the page stays shareable.

No JS? Fill the form by hand. The geolocation button needs JavaScript.